Regional Weather Roundup
Issued by NWS Little Rock, AR

Home | Current Version | Previous Version | Text Only | Print | Product List | Glossary Off
Versions: 1 2 3 4 5 6 7 8 9 10 11 12 13 14 15 16 17 18 19 20 21 22 23 24 25 26 27 28 29 30 31 32 33 34 35 36 37 38 39 40 41 42 43 44 45 46 47 48 49 50

000
ASUS44 KLZK 202005
RWRLZK

WEATHER ROUNDUP FOR ARKANSAS
NATIONAL WEATHER SERVICE LITTLE ROCK AR
300 PM CDT MON OCT 20 2014

NOTE: "FAIR" INDICATES FEW OR NO CLOUDS BELOW 12,000 FEET WITH NO
SIGNIFICANT WEATHER AND/OR OBSTRUCTIONS TO VISIBILITY.

ARZ001-003-010-029-202100-
NORTHWEST ARKANSAS

CITY           SKY/WX    TMP DP  RH WIND       PRES   REMARKS
FAYETTEVILLE   PTSUNNY   67  58  72 W7        30.05F
FORT SMITH     SUNNY     71  55  56 VRB5      30.04F
HARRISON       CLOUDY    69  58  67 W6        30.04F
BENTONVILLE    CLOUDY    68  57  68 N5        30.05S
ROGERS         CLOUDY    67  57  70 CALM      30.05F
SILOAM SPGS    CLOUDY    68  55  64 SW5       30.06S
HIGHFILL       CLOUDY    67  58  72 CALM      30.04F
SPRINGDALE     CLOUDY    66  57  72 W7        30.06F
$$

ARZ004-005-016-202100-
NORTH CENTRAL ARKANSAS

CITY           SKY/WX    TMP DP  RH WIND       PRES   REMARKS
BATESVILLE     CLOUDY    73  57  56 W8        30.01F
FLIPPIN        CLOUDY    72  55  56 W5        30.01F
MTN HOME       MOSUNNY   72  57  59 VRB7      30.01F
$$

ARZ040-041-202100-
WEST CENTRAL ARKANSAS

CITY           SKY/WX    TMP DP  RH WIND       PRES   REMARKS
MENA           PTSUNNY   75  59  57 CALM      30.05F
MOUNT IDA      PTSUNNY   73  58  59 CALM      30.03F
$$

ARZ009-017-025-026-028-202100-
NORTHEAST ARKANSAS

CITY           SKY/WX    TMP DP  RH WIND       PRES   REMARKS
JONESBORO      SUNNY     74  53  48 W10       29.99F
NEWPORT        MOSUNNY   73  54  51 SW10      30.02F
WALNUT RIDGE   SUNNY     73  54  49 W8        29.98F
BLYTHEVILLE    PTSUNNY   74  54  49 SW9       30.00F
NW BLYTHEVILLE PTSUNNY   73  54  49 SW9       30.00F
$$

ARZ022-023-033-042-044-202100-
CENTRAL ARKANSAS

CITY           SKY/WX    TMP DP  RH WIND       PRES   REMARKS
LITTLE ROCK    PTSUNNY   69  52  54 SW5       30.05F
N LITTLE ROCK  PTSUNNY   71  55  57 W5        30.05F
JACKSONVILLE   SUNNY     72  54  52 W5        30.03F
SEARCY         SUNNY     72  54  53 SW6       30.03F
HOT SPRINGS    CLOUDY    67  56  67 CALM      30.06F
RUSSELLVILLE   PTSUNNY   71  55  56 VRB5      30.03F
$$

ARZ036-202100-
EAST ARKANSAS

CITY           SKY/WX    TMP DP  RH WIND       PRES   REMARKS
WEST MEMPHIS   SUNNY     71  53  52 SW8       30.02F
$$

ARZ050-053-066-070-073-202100-
SOUTHWEST ARKANSAS

CITY           SKY/WX    TMP DP  RH WIND       PRES   REMARKS
ARKADELPHIA    FAIR      72  59  63 VRB3      30.05F
CAMDEN         MOSUNNY   77  50  38 CALM      30.05S
TEXARKANA      MOSUNNY   76  52  43 N5        30.05F
EL DORADO      SUNNY     75  52  44 NW7       30.05F
DE QUEEN       SUNNY     74  58  57 VRB3      30.03F
$$

ARZ056-057-069-202100-
SOUTHEAST ARKANSAS

CITY           SKY/WX    TMP DP  RH WIND       PRES   REMARKS
PINE BLUFF     PTSUNNY   71  52  50 SW7       30.04F
STUTTGART      CLOUDY    73  52  46 W9        30.05F
MONTICELLO     SUNNY     73  51  46 VRB5      30.04F

$$




USA.gov is the U.S. government's official web portal to all federal, state and local government web resources and services.